GW2490 Weather Reports


time (UTC)temp
C
wind
direction
speed
KPH
gust
KPH
rain 1hr
cm
rain 24hr
cm
rain mn
cm
humidity
%
barometer
mb
20260503213212 -17 0.0 0.0 0.00 0.00 0.00
20260503212957 20 303 8.0 14.5 0.00 0.00 0.00 54 1013.1
20260503212713 -17 0.0 0.0 0.00 0.00 0.00
20260503212457 21 312 6.4 11.3 0.00 0.00 0.00 52 1013.2
20260503212209 -17 0.0 0.0 0.00 0.00 0.00
20260503211959 21 305 9.7 12.9 0.00 0.00 0.00 50 1013.1
20260503211458 20 312 8.0 14.5 0.00 0.00 0.00 50 1013.2
20260503211211 -17 0.0 0.0 0.00 0.00 0.00
20260503210957 20 306 11.3 19.3 0.00 0.00 0.00 50 1013.2
20260503210710 -17 0.0 0.0 0.00 0.00 0.00
20260503210458 20 308 11.3 14.5 0.00 0.00 0.00 51 1013.3
20260503210210 -17 0.0 0.0 0.00 0.00 0.00
20260503205957 20 303 4.8 11.3 0.00 0.00 0.00 51 1013.4
20260503205457 20 301 9.7 16.1 0.00 0.00 0.00 50 1013.5
20260503205211 -17 0.0 0.0 0.00 0.00 0.00
20260503204957 20 302 6.4 11.3 0.00 0.00 0.00 51 1013.5
20260503204708 -17 0.0 0.0 0.00 0.00 0.00
20260503204457 20 298 8.0 11.3 0.00 0.00 0.00 51 1013.5
20260503204208 -17 0.0 0.0 0.00 0.00 0.00
20260503203957 20 304 9.7 14.5 0.00 0.00 0.00 52 1013.6
20260503203707 -17 0.0 0.0 0.00 0.00 0.00
20260503203459 20 311 3.2 8.0 0.00 0.00 0.00 52 1013.7
20260503203208 -17 0.0 0.0 0.00 0.00 0.00
20260503202957 20 299 8.0 12.9 0.00 0.00 0.00 54 1013.8
20260503202708 -17 0.0 0.0 0.00 0.00 0.00
20260503202457 19 278 6.4 12.9 0.00 0.00 0.00 56 1014.0
20260503202208 -17 0.0 0.0 0.00 0.00 0.00
20260503201957 18 298 6.4 11.3 0.00 0.00 0.00 56 1014.0
20260503201708 -17 0.0 0.0 0.00 0.00 0.00
20260503201458 18 310 9.7 14.5 0.00 0.00 0.00 57 1014.0
20260503201208 -17 0.0 0.0 0.00 0.00 0.00
20260503200957 18 312 9.7 14.5 0.00 0.00 0.00 57 1014.2
20260503200708 -17 0.0 0.0 0.00 0.00 0.00
20260503200457 18 303 9.7 14.5 0.00 0.00 0.00 56 1014.1
20260503195957 18 313 6.4 11.3 0.00 0.00 0.00 56 1014.2
20260503195706 -17 0.0 0.0 0.00 0.00 0.00
20260503195458 18 316 6.4 11.3 0.00 0.00 0.00 57 1014.3
20260503195203 -17 0.0 0.0 0.00 0.00 0.00
20260503194957 18 308 9.7 14.5 0.00 0.00 0.00 56 1014.3
20260503194458 18 314 9.7 16.1 0.00 0.00 0.00 58 1014.2
20260503193957 17 314 12.9 17.7 0.00 0.00 0.00 58 1014.2
20260503193707 -17 0.0 0.0 0.00 0.00 0.00
20260503193458 18 323 9.7 16.1 0.00 0.00 0.00 59 1014.2
20260503193203 -17 0.0 0.0 0.00 0.00 0.00
20260503192957 17 318 9.7 16.1 0.00 0.00 0.00 60 1014.3
20260503192703 -17 0.0 0.0 0.00 0.00 0.00
20260503192457 17 316 9.7 14.5 0.00 0.00 0.00 61 1014.3
20260503192203 -17 0.0 0.0 0.00 0.00 0.00
20260503191957 17 311 8.0 11.3 0.00 0.00 0.00 61 1014.3
20260503191701 -17 0.0 0.0 0.00 0.00 0.00
20260503191457 17 314 9.7 14.5 0.00 0.00 0.00 61 1014.3
20260503191201 -17 0.0 0.0 0.00 0.00 0.00
20260503190957 17 317 8.0 14.5 0.00 0.00 0.00 61 1014.4
20260503190702 -17 0.0 0.0 0.00 0.00 0.00
20260503190457 17 314 6.4 11.3 0.00 0.00 0.00 62 1014.5
20260503190200 -17 0.0 0.0 0.00 0.00 0.00
20260503185957 17 313 8.0 12.9 0.00 0.00 0.00 61 1014.5
20260503185701 -17 0.0 0.0 0.00 0.00 0.00
20260503185457 17 306 9.7 16.1 0.00 0.00 0.00 62 1014.5
20260503185200 -17 0.0 0.0 0.00 0.00 0.00
20260503184957 17 315 9.7 14.5 0.00 0.00 0.00 61 1014.5
20260503184657 -17 0.0 0.0 0.00 0.00 0.00
20260503184457 17 307 6.4 12.9 0.00 0.00 0.00 62 1014.5
20260503184158 -17 0.0 0.0 0.00 0.00 0.00
20260503183957 16 316 9.7 14.5 0.00 0.00 0.00 65 1014.6
20260503183657 -17 0.0 0.0 0.00 0.00 0.00
20260503183458 16 306 11.3 14.5 0.00 0.00 0.00 67 1014.6
20260503183158 -17 0.0 0.0 0.00 0.00 0.00
20260503182957 16 307 9.7 17.7 0.00 0.00 0.00 67 1014.8
20260503182658 -17 0.0 0.0 0.00 0.00 0.00
20260503182457 16 320 9.7 12.9 0.00 0.00 0.00 66 1014.8
20260503182158 -17 0.0 0.0 0.00 0.00 0.00
20260503181957 16 320 6.4 9.7 0.00 0.00 0.00 68 1014.9
20260503181658 -17 0.0 0.0 0.00 0.00 0.00
20260503181457 16 304 8.0 11.3 0.00 0.00 0.00 68 1014.9
20260503181159 -17 0.0 0.0 0.00 0.00 0.00
20260503180957 16 295 8.0 12.9 0.00 0.00 0.00 69 1014.9
20260503180659 -17 0.0 0.0 0.00 0.00 0.00
20260503180457 16 294 9.7 16.1 0.00 0.00 0.00 69 1014.9
20260503180158 -17 0.0 0.0 0.00 0.00 0.00
20260503175957 16 304 9.7 12.9 0.00 0.00 0.00 69 1014.9
20260503175655 -17 0.0 0.0 0.00 0.00 0.00
20260503175458 16 309 8.0 12.9 0.00 0.00 0.00 70 1014.9
20260503175156 -17 0.0 0.0 0.00 0.00 0.00
20260503174957 15 315 6.4 9.7 0.00 0.00 0.00 70 1015.0
20260503174655 -17 0.0 0.0 0.00 0.00 0.00
20260503174457 15 325 8.0 12.9 0.00 0.00 0.00 71 1015.0
20260503174156 -17 0.0 0.0 0.00 0.00 0.00
20260503173958 15 309 8.0 17.7 0.00 0.00 0.00 70 1015.0
20260503173657 -17 0.0 0.0 0.00 0.00 0.00
20260503173457 15 301 6.4 12.9 0.00 0.00 0.00 70 1015.0
20260503173158 -17 0.0 0.0 0.00 0.00 0.00
20260503172957 15 314 9.7 14.5 0.00 0.00 0.00 72 1015.1
20260503172655 -17 0.0 0.0 0.00 0.00 0.00
20260503172459 15 310 9.7 14.5 0.00 0.00 0.00 72 1015.1
20260503172156 -17 0.0 0.0 0.00 0.00 0.00
20260503171957 15 309 6.4 9.7 0.00 0.00 0.00 72 1015.2
20260503171656 -17 0.0 0.0 0.00 0.00 0.00
20260503171457 15 312 6.4 8.0 0.00 0.00 0.00 72 1015.2
20260503171156 -17 0.0 0.0 0.00 0.00 0.00
20260503170957 15 297 9.7 14.5 0.00 0.00 0.00 71 1015.1
20260503170656 -17 0.0 0.0 0.00 0.00 0.00
20260503170457 15 306 6.4 9.7 0.00 0.00 0.00 69 1015.1
20260503170156 -17 0.0 0.0 0.00 0.00 0.00
20260503160148 -17 0.0 0.0 0.00 0.00 0.00
20260503150957 13 310 6.4 8.0 0.00 0.00 0.00 75 1015.4
20260503150650 -17 0.0 0.0 0.00 0.00 0.00
20260503150457 13 321 6.4 12.9 0.00 0.00 0.00 76 1015.4
20260503150155 -17 0.0 0.0 0.00 0.00 0.00
20260503130957 12 319 11.3 14.5 0.00 0.00 0.00 77 1014.8
20260503130640 -17 0.0 0.0 0.00 0.00 0.00
20260503130457 12 324 11.3 14.5 0.00 0.00 0.00 78 1014.9
20260503130142 -17 0.0 0.0 0.00 0.00 0.00
20260503120131 -17 0.0 0.0 0.00 0.00 0.00
20260503110629 -17 0.0 0.0 0.00 0.00 0.00
20260503110457 15 317 8.0 12.9 0.00 0.00 0.00 70 1015.1
20260503100125 -17 0.0 0.0 0.00 0.00 0.00
20260503090457 16 329 14.5 29.0 0.00 0.00 0.00 64 1015.1
20260503090123 -17 0.0 0.0 0.00 0.00 0.00
20260503081458 17 332 9.7 16.1 0.00 0.00 0.00 59 1015.2
20260503081121 -17 0.0 0.0 0.00 0.00 0.00
20260503080957 17 321 9.7 17.7 0.00 0.00 0.00 58 1015.3
20260503080457 17 326 11.3 14.5 0.00 0.00 0.00 57 1015.2
20260503080121 -17 0.0 0.0 0.00 0.00 0.00
20260503072457 19 313 6.4 16.1 0.00 0.00 0.00 49 1015.2
20260503071958 19 311 8.0 12.9 0.00 0.00 0.00 48 1015.2
20260503071619 -17 0.0 0.0 0.00 0.00 0.00
20260503071457 19 320 9.7 14.5 0.00 0.00 0.00 48 1015.3
20260503071118 -17 0.0 0.0 0.00 0.00 0.00
20260503070957 19 324 6.4 12.9 0.00 0.00 0.00 47 1015.3
20260503070618 -17 0.0 0.0 0.00 0.00 0.00
20260503070457 19 325 9.7 12.9 0.00 0.00 0.00 47 1015.3
20260503060117 -17 0.0 0.0 0.00 0.00 0.00
20260503055117 -17 0.0 0.0 0.00 0.00 0.00
20260503054957 20 308 4.8 11.3 0.00 0.00 0.05 45 1014.9
20260503054616 -17 0.0 0.0 0.00 0.00 0.00
20260503054457 20 340 8.0 14.5 0.00 0.00 0.05 44 1014.8
20260503053957 20 319 4.8 8.0 0.00 0.00 0.05 44 1015.0
20260503053617 -17 0.0 0.0 0.00 0.00 0.00
20260503053457 20 338 8.0 12.9 0.00 0.00 0.05 44 1015.0
20260503053115 -17 0.0 0.0 0.00 0.00 0.00
20260503052957 20 332 8.0 14.5 0.00 0.00 0.05 44 1015.1
20260503052615 -17 0.0 0.0 0.00 0.00 0.00
20260503052457 20 315 8.0 12.9 0.00 0.00 0.05 44 1015.1
20260503052114 -17 0.0 0.0 0.00 0.00 0.00
20260503051958 20 347 6.4 12.9 0.00 0.00 0.05 44 1015.1
20260503051615 -17 0.0 0.0 0.00 0.00 0.00
20260503051457 20 301 6.4 14.5 0.00 0.00 0.05 44 1015.1
20260503050957 20 327 6.4 12.9 0.00 0.00 0.05 43 1015.2
20260503050616 -17 0.0 0.0 0.00 0.00 0.00
20260503050459 20 342 8.0 12.9 0.00 0.00 0.05 43 1015.2
20260503050116 -17 0.0 0.0 0.00 0.00 0.00
20260503045957 20 332 8.0 12.9 0.00 0.00 0.05 43 1015.2
20260503045615 -17 0.0 0.0 0.00 0.00 0.00
20260503045457 20 356 8.0 12.9 0.00 0.00 0.05 43 1015.1
20260503045115 -17 0.0 0.0 0.00 0.00 0.00
20260503044957 20 324 4.8 9.7 0.00 0.00 0.05 43 1015.1
20260503044615 -17 0.0 0.0 0.00 0.00 0.00
20260503044457 20 321 6.4 14.5 0.00 0.00 0.05 43 1015.0
20260503044115 -17 0.0 0.0 0.00 0.00 0.00
20260503043957 20 344 6.4 14.5 0.00 0.00 0.05 44 1015.0
20260503043612 -17 0.0 0.0 0.00 0.00 0.00
20260503043457 20 325 6.4 12.9 0.00 0.00 0.05 44 1015.0
20260503043109 -17 0.0 0.0 0.00 0.00 0.00
20260503042957 20 327 9.7 12.9 0.00 0.00 0.05 44 1015.0
20260503042457 20 332 6.4 14.5 0.00 0.00 0.05 44 1014.9
20260503042109 -17 0.0 0.0 0.00 0.00 0.00
20260503041957 20 326 6.4 12.9 0.00 0.00 0.05 44 1014.9
20260503041610 -17 0.0 0.0 0.00 0.00 0.00
20260503041457 20 328 9.7 17.7 0.00 0.00 0.05 45 1014.8
20260503041109 -17 0.0 0.0 0.00 0.00 0.00
20260503040957 20 337 8.0 16.1 0.00 0.00 0.05 44 1014.9
20260503040609 -17 0.0 0.0 0.00 0.00 0.00
20260503040457 20 325 11.3 16.1 0.00 0.00 0.05 44 1014.8
20260503040110 -17 0.0 0.0 0.00 0.00 0.00
20260503035957 20 351 6.4 14.5 0.00 0.00 0.05 45 1014.8
20260503035610 -17 0.0 0.0 0.00 0.00 0.00
20260503035458 20 321 6.4 9.7 0.00 0.00 0.05 44 1014.8
20260503035110 -17 0.0 0.0 0.00 0.00 0.00
20260503034957 20 349 4.8 9.7 0.00 0.00 0.05 44 1014.7
20260503034611 -17 0.0 0.0 0.00 0.00 0.00
20260503034457 20 336 8.0 12.9 0.00 0.00 0.05 45 1014.6
20260503034108 -17 0.0 0.0 0.00 0.00 0.00
20260503033957 20 345 8.0 19.3 0.00 0.00 0.05 44 1014.5
20260503033457 20 338 6.4 11.3 0.00 0.00 0.05 44 1014.4
20260503033108 -17 0.0 0.0 0.00 0.00 0.00
20260503032958 20 319 9.7 17.7 0.00 0.00 0.05 44 1014.5
20260503032607 -17 0.0 0.0 0.00 0.00 0.00
20260503032457 20 328 9.7 17.7 0.00 0.00 0.05 44 1014.4
20260503031957 20 335 6.4 9.7 0.00 0.00 0.05 44 1014.4
20260503031607 -17 0.0 0.0 0.00 0.00 0.00
20260503031457 20 353 6.4 14.5 0.00 0.00 0.05 44 1014.4
20260503031108 -17 0.0 0.0 0.00 0.00 0.00
20260503030957 20 330 8.0 12.9 0.00 0.00 0.05 45 1014.3
20260503030608 -17 0.0 0.0 0.00 0.00 0.00
20260503030457 20 346 6.4 12.9 0.00 0.00 0.05 45 1014.4
20260503030109 -17 0.0 0.0 0.00 0.00 0.00
20260503025957 20 330 6.4 14.5 0.00 0.00 0.05 46 1014.3
20260503025608 -17 0.0 0.0 0.00 0.00 0.00
20260503025458 20 343 9.7 17.7 0.00 0.00 0.05 45 1014.2
20260503025107 -17 0.0 0.0 0.00 0.00 0.00
20260503024957 20 337 8.0 14.5 0.00 0.00 0.05 46 1014.4
20260503024608 -17 0.0 0.0 0.00 0.00 0.00
20260503024457 20 330 6.4 14.5 0.00 0.00 0.05 46 1014.3
20260503024108 -17 0.0 0.0 0.00 0.00 0.00
20260503023957 20 326 4.8 11.3 0.00 0.00 0.05 46 1014.2
20260503023605 -17 0.0 0.0 0.00 0.00 0.00
20260503023457 20 340 11.3 20.9 0.00 0.00 0.05 46 1014.2
20260503023105 -17 0.0 0.0 0.00 0.00 0.00
20260503022958 20 348 8.0 19.3 0.00 0.00 0.05 46 1014.3
20260503022605 -17 0.0 0.0 0.00 0.00 0.00
20260503022458 20 330 9.7 14.5 0.00 0.00 0.05 46 1014.3
20260503022106 -17 0.0 0.0 0.00 0.00 0.00
20260503021957 20 328 11.3 19.3 0.00 0.00 0.05 45 1014.4
20260503021605 -17 0.0 0.0 0.00 0.00 0.00
20260503021458 20 342 8.0 14.5 0.00 0.00 0.05 46 1014.4
20260503021106 -17 0.0 0.0 0.00 0.00 0.00
20260503020957 20 334 9.7 20.9 0.00 0.00 0.05 46 1014.4
20260503020606 -17 0.0 0.0 0.00 0.00 0.00
20260503020457 20 2 8.0 14.5 0.00 0.00 0.05 46 1014.4
20260503020106 -17 0.0 0.0 0.00 0.00 0.00
20260503015957 21 338 9.7 16.1 0.00 0.00 0.05 46 1014.4
20260503015605 -17 0.0 0.0 0.00 0.00 0.00
20260503015457 21 351 9.7 16.1 0.00 0.00 0.05 45 1014.3
20260503014957 21 326 6.4 11.3 0.00 0.00 0.05 46 1014.6
20260503014457 21 327 9.7 16.1 0.00 0.00 0.05 46 1014.6
20260503013957 21 335 9.7 19.3 0.00 0.00 0.05 46 1014.6
20260503013457 21 340 12.9 19.3 0.00 0.00 0.05 47 1014.6
20260503013103 -17 0.0 0.0 0.00 0.00 0.00
20260503012957 21 328 11.3 16.1 0.00 0.00 0.05 47 1014.6
20260503012604 -17 0.0 0.0 0.00 0.00 0.00
20260503012457 21 328 11.3 16.1 0.00 0.00 0.05 47 1014.7
20260503011512 21 328 6.4 9.7 0.00 0.00 0.05 47 1014.7
20260503011104 -17 0.0 0.0 0.00 0.00 0.00
20260503010957 20 312 6.4 12.9 0.00 0.00 0.05 48 1014.7
20260503010604 -17 0.0 0.0 0.00 0.00 0.00
20260503010457 20 308 6.4 12.9 0.00 0.00 0.05 48 1014.8
20260503010103 -17 0.0 0.0 0.00 0.00 0.00
20260503005957 20 329 9.7 14.5 0.00 0.00 0.05 49 1014.8
20260503005604 -17 0.0 0.0 0.00 0.00 0.00
20260503005457 20 325 11.3 24.1 0.00 0.00 0.05 48 1014.9
20260503005104 -17 0.0 0.0 0.00 0.00 0.00
20260503004957 20 325 9.7 19.3 0.00 0.00 0.05 49 1014.9
20260503004604 -17 0.0 0.0 0.00 0.00 0.00
20260503004457 20 316 9.7 17.7 0.00 0.00 0.05 50 1014.8
20260503003958 20 319 9.7 14.5 0.00 0.00 0.05 49 1015.0
20260503003601 -17 0.0 0.0 0.00 0.00 0.00
20260503003457 20 315 12.9 24.1 0.00 0.00 0.05 51 1015.0
20260503003101 -17 0.0 0.0 0.00 0.00 0.00
20260503002959 20 339 9.7 16.1 0.00 0.00 0.05 50 1014.9
20260503002601 -17 0.0 0.0 0.00 0.00 0.00
20260503002457 20 308 11.3 16.1 0.00 0.00 0.05 52 1015.0
20260503002101 -17 0.0 0.0 0.00 0.00 0.00
20260503001957 20 319 9.7 17.7 0.00 0.00 0.05 52 1015.1
20260503001612 -17 0.0 0.0 0.00 0.00 0.00
20260503001457 20 336 12.9 19.3 0.00 0.00 0.05 50 1014.9
20260503001101 -17 0.0 0.0 0.00 0.00 0.00
20260503000957 20 314 9.7 19.3 0.00 0.00 0.05 50 1015.0
20260503000602 -17 0.0 0.0 0.00 0.00 0.00
20260503000457 20 300 8.0 14.5 0.00 0.00 0.05 50 1015.0
20260502235959 20 332 11.3 22.5 0.00 0.00 0.05 48 1015.0
20260502235602 -17 0.0 0.0 0.00 0.00 0.00
20260502235457 20 331 12.9 17.7 0.00 0.00 0.05 48 1015.0
20260502235102 -17 0.0 0.0 0.00 0.00 0.00
20260502234957 20 310 9.7 14.5 0.00 0.00 0.05 50 1015.1
20260502234602 -17 0.0 0.0 0.00 0.00 0.00
20260502234457 20 316 12.9 20.9 0.00 0.00 0.05 51 1015.1
20260502234059 -17 0.0 0.0 0.00 0.00 0.00
20260502233958 20 311 14.5 20.9 0.00 0.00 0.05 51 1015.2
20260502233559 -17 0.0 0.0 0.00 0.00 0.00
20260502233459 20 311 8.0 17.7 0.00 0.00 0.05 50 1015.2
20260502233100 -17 0.0 0.0 0.00 0.00 0.00
20260502232957 20 310 6.4 9.7 0.00 0.00 0.05 52 1015.3
20260502232559 -17 0.0 0.0 0.00 0.00 0.00
20260502232458 20 310 8.0 12.9 0.00 0.00 0.05 51 1015.3
20260502231957 20 293 8.0 12.9 0.00 0.00 0.05 54 1015.4
20260502231600 -17 0.0 0.0 0.00 0.00 0.00
20260502231457 19 297 8.0 19.3 0.00 0.00 0.05 55 1015.4
20260502231100 -17 0.0 0.0 0.00 0.00 0.00
20260502230957 19 305 9.7 14.5 0.00 0.00 0.05 56 1015.5
20260502230559 -17 0.0 0.0 0.00 0.00 0.00
20260502230458 19 316 8.0 12.9 0.00 0.00 0.05 56 1015.5
20260502230100 -17 0.0 0.0 0.00 0.00 0.00
20260502225957 19 328 9.7 17.7 0.00 0.00 0.05 57 1015.6
20260502225600 -17 0.0 0.0 0.00 0.00 0.00
20260502225458 19 310 11.3 19.3 0.00 0.00 0.05 57 1015.7
20260502225100 -17 0.0 0.0 0.00 0.00 0.00
20260502224957 19 303 9.7 16.1 0.00 0.00 0.05 56 1015.7
20260502224557 -17 0.0 0.0 0.00 0.00 0.00
20260502224457 19 294 9.7 16.1 0.00 0.00 0.05 56 1015.8
20260502223957 19 309 9.7 14.5 0.00 0.00 0.05 57 1015.9
20260502223457 18 311 9.7 14.5 0.00 0.00 0.05 58 1015.8
20260502223055 -17 0.0 0.0 0.00 0.00 0.00
20260502222957 18 298 11.3 17.7 0.00 0.00 0.05 58 1015.9
20260502222457 18 302 8.0 14.5 0.00 0.00 0.05 60 1016.0
20260502222056 -17 0.0 0.0 0.00 0.00 0.00
20260502221958 18 300 9.7 14.5 0.00 0.00 0.05 60 1016.1
20260502221555 -17 0.0 0.0 0.00 0.00 0.00
20260502221457 18 294 9.7 14.5 0.00 0.00 0.05 61 1016.1
20260502221055 -17 0.0 0.0 0.00 0.00 0.00
20260502220957 18 314 11.3 14.5 0.00 0.00 0.05 62 1016.2
20260502220555 -17 0.0 0.0 0.00 0.00 0.00
20260502220458 18 300 8.0 12.9 0.00 0.00 0.05 61 1016.4
20260502220055 -17 0.0 0.0 0.00 0.00 0.00
20260502215957 18 292 8.0 11.3 0.00 0.00 0.05 60 1016.4
20260502215556 -17 0.0 0.0 0.00 0.00 0.00
20260502215457 18 303 9.7 14.5 0.00 0.00 0.05 61 1016.4
20260502214957 18 292 9.7 14.5 0.00 0.00 0.05 61 1016.4
20260502214555 -17 0.0 0.0 0.00 0.00 0.00
20260502214457 18 302 6.4 9.7 0.00 0.00 0.05 60 1016.5
20260502214053 -17 0.0 0.0 0.00 0.00 0.00
20260502213957 18 299 11.3 16.1 0.00 0.00 0.05 60 1016.5
20260502213457 18 302 8.0 14.5 0.00 0.00 0.05 61 1016.7